Wind_Speed
3 2 2 1 1 2 3 4 5 5 4 5 5 6 6 7 7 7 8 9 9 10 11 12 12 12 12 11 10 9 8 7 7 6 5 6 5 5 4 4 3 2 3
3 3 2 1 1 2 3 5 5 5 5 5 5 6 7 8 8 8 9 9 9 9 11 12 12 12 11 11 10 9 8 7 7 6 5 5 4 4 3 3 3 2 3
3 4 3 3 2 3 4 5 5 5 5 6 6 7 7 9 9 8 9 9 10 10 11 12 12 11 11 11 10 9 8 7 7 6 5 5 5 4 4 3 3 2 2
4 5 5 5 5 6 6 6 6 6 6 7 7 8 9 10 10 10 10 10 10 10 11 12 11 10 10 9 9 8 7 7 6 5 4 4 3 3 3 3 2 2 3
5 6 7 7 7 7 6 6 6 7 7 7 8 8 8 10 10 12 10 11 10 10 11 11 10 9 9 9 8 8 7 6 6 5 4 3 3 3 3 2 2 2 2
5 6 7 8 8 8 7 7 7 7 7 7 7 8 8 9 10 11 11 11 11 11 11 9 9 9 9 8 8 8 7 5 5 5 3 3 3 3 2 2 1 1 1
5 6 7 7 8 8 8 8 7 7 7 7 7 8 8 8 9 10 10 10 11 10 9 9 8 9 8 8 7 7 6 5 5 4 3 3 3 2 2 2 1 2 2
4 6 8 7 8 8 7 7 7 7 7 8 8 7 7 8 9 10 10 10 10 9 8 8 8 8 7 6 6 5 5 5 5 4 3 3 3 2 2 2 2 2 2
5 6 8 8 8 7 7 7 7 8 8 8 8 8 8 8 9 10 10 10 9 9 8 8 7 6 6 6 6 5 5 4 4 4 4 4 3 3 2 2 2 3 3
6 6 6 7 7 7 6 7 8 7 7 7 8 8 8 8 8 9 9 9 9 9 8 7 6 6 5 5 5 4 4 4 3 4 4 4 4 3 3 3 3 4 4
6 6 6 7 8 7 7 7 7 7 7 7 7 8 9 9 9 8 8 8 8 8 7 5 6 5 4 4 4 3 3 3 2 2 3 4 4 4 4 4 4 5 5
7 7 8 7 7 7 7 8 8 7 7 7 7 8 8 8 8 8 7 7 7 7 6 5 5 4 3 3 2 2 2 2 2 2 3 4 4 4 4 5 5 6 5
7 8 7 7 7 7 7 7 7 7 7 7 7 7 7 7 7 7 6 6 6 5 4 4 4 3 3 2 1 2 2 2 3 3 4 4 4 5 5 6 6 6 6
7 7 7 6 6 7 7 6 7 6 6 7 7 6 6 6 6 6 6 6 5 4 3 3 3 2 2 2 1 2 2 3 3 4 4 4 5 6 6 7 7 7 7
7 6 6 7 7 7 6 6 6 6 6 6 5 5 5 5 5 5 5 5 4 3 3 2 2 2 2 3 3 3 3 4 4 4 4 5 6 6 7 7 7 7 8
7 6 6 7 7 6 5 5 5 5 5 5 4 5 4 4 5 5 4 4 4 3 3 2 2 2 2 3 3 3 4 5 5 5 5 6 6 7 7 8 8 8 9
7 6 6 5 5 5 4 4 5 5 5 5 4 4 4 4 5 5 5 3 3 3 3 2 2 2 3 3 4 4 5 5 6 6 7 7 8 8 9 9 9 10 10
7 7 6 5 4 4 3 3 4 4 5 4 4 4 3 3 3 4 3 3 3 3 3 3 3 4 4 3 4 4 5 7 8 8 8 9 9 9 10 10 10 11 11
6 6 6 5 4 3 3 3 3 3 3 3 3 3 3 3 3 2 2 2 2 3 3 3 3 4 4 5 5 5 6 8 8 8 9 10 10 10 11 11 11 12 12
5 5 5 4 3 3 3 3 3 2 2 2 3 3 4 3 2 2 2 2 2 2 3 3 3 4 5 5 6 6 7 8 9 9 10 11 11 11 11 11 11 11 12
5 5 4 4 3 2 3 3 3 3 2 2 2 3 3 3 2 3 2 2 2 2 3 3 3 4 5 6 6 7 7 9 10 10 10 11 12 12 12 12 12 12 12
5 5 5 4 3 3 3 3 2 2 2 2 2 2 3 3 3 3 2 2 2 2 3 3 4 5 5 6 6 7 8 10 11 11 10 11 11 12 13 13 13 13 12
5 5 5 5 3 3 3 2 2 2 2 2 3 3 3 3 4 3 2 2 2 3 3 4 5 6 6 7 7 8 10 11 12 12 12 12 13 13 13 13 13 14 14
5 5 5 4 4 3 2 2 2 2 2 3 3 3 3 4 4 3 3 2 2 3 4 4 5 6 7 8 9 10 11 12 13 13 13 13 14 14 14 13 14 14 14
5 5 5 4 4 3 3 3 3 3 3 4 4 3 3 3 3 3 3 2 2 3 5 6 6 7 8 9 9 10 12 13 14 14 14 14 15 14 14 13 14 14 15
5 5 5 5 4 3 3 4 4 5 5 5 5 4 3 3 3 3 3 4 3 4 5 7 7 8 9 10 11 12 13 14 15 15 15 15 15 14 14 14 15 15 15
Wind_Direction
352 18 12 27 65 77 92 97 112 121 117 113 113 112 117 120 115 116 118 122 126 129 130 128 127 123 121 124 126 126 128 121 112 122 117 118 113 107 105 100 95 97 89
11 33 27 32 81 99 104 105 115 113 114 114 110 116 119 119 121 121 117 122 126 128 126 125 126 124 123 122 121 123 121 116 118 122 118 114 109 107 102 99 99 98 81
27 39 52 61 95 119 115 109 102 98 104 105 111 120 121 123 127 124 121 125 125 124 126 124 123 121 120 116 115 112 110 106 108 109 109 109 107 92 90 88 83 78 71
47 62 74 78 95 112 111 109 97 93 100 100 104 111 116 122 126 120 118 122 124 125 122 117 119 120 119 115 110 107 109 103 105 109 109 102 92 78 71 72 53 57 54
65 76 84 90 97 103 101 99 100 96 98 100 100 109 109 114 119 115 116 120 123 126 124 118 117 115 112 109 107 107 107 100 100 103 104 97 86 69 67 57 41 40 38
77 81 83 93 100 100 99 103 104 100 99 98 101 110 111 114 117 117 118 119 123 123 125 120 115 114 110 106 103 104 102 95 92 94 91 83 82 75 73 51 23 5 5
86 90 89 97 106 108 106 103 104 103 100 96 100 108 111 119 117 123 127 122 122 119 118 117 118 119 113 109 108 106 97 91 87 84 85 81 76 71 50 34 354 7 8
82 96 97 100 111 115 110 99 98 104 101 98 99 100 101 108 116 115 122 125 121 120 117 115 117 117 115 114 114 108 98 91 83 72 60 59 66 57 36 18 8 359 335
92 95 103 100 110 117 111 105 103 103 102 98 102 102 104 109 117 117 117 124 119 119 118 117 117 120 113 111 109 107 101 89 79 69 50 41 41 37 30 34 14 352 339
94 95 105 101 104 110 108 108 108 105 102 103 110 106 104 104 114 119 117 117 118 121 122 119 114 116 111 105 104 103 96 83 75 62 37 30 27 20 8 354 342 335 329
89 93 105 105 104 105 109 108 110 106 101 101 106 111 106 108 113 119 123 116 116 115 119 117 112 111 107 93 90 91 87 81 58 24 9 13 8 356 351 340 335 331 334
85 94 103 103 98 100 101 103 106 103 100 102 108 112 114 115 115 121 117 116 117 114 114 114 112 113 103 90 96 82 62 48 39 10 2 360 356 351 346 337 331 331 334
83 87 92 95 93 99 99 102 103 105 103 102 105 111 113 113 115 115 107 109 112 113 113 116 115 123 117 100 94 83 58 32 9 2 352 354 352 345 341 340 334 329 322
90 89 87 94 101 102 100 101 101 100 99 103 102 101 104 111 114 116 110 107 104 111 120 115 113 106 86 65 60 30 20 12 359 355 357 356 351 345 343 343 340 331 325
80 89 93 98 99 100 100 100 103 100 101 100 98 98 98 104 111 113 112 109 98 94 99 89 73 66 56 38 29 21 8 358 353 355 355 347 344 343 342 342 342 337 331
75 76 83 92 96 99 100 96 96 97 101 102 94 93 95 92 98 98 109 101 88 75 71 66 49 31 15 6 10 7 357 344 347 351 349 343 337 337 337 337 335 331 330
73 77 85 88 92 98 103 100 95 91 88 88 80 76 76 85 83 89 96 85 68 59 63 55 31 13 358 357 359 356 348 345 344 342 338 334 331 330 332 329 324 325 325
68 73 79 85 90 95 105 106 97 89 82 79 72 72 71 77 86 85 87 76 59 50 43 32 19 10 360 343 337 338 339 343 341 337 333 328 327 325 324 321 320 321 321
61 68 74 80 86 91 96 94 85 80 72 68 67 66 60 73 81 84 73 76 56 32 24 17 9 1 354 344 334 337 341 340 337 332 332 331 326 322 321 320 320 319 319
63 64 66 73 78 80 84 78 74 74 75 74 67 64 65 65 57 60 56 57 44 19 11 5 359 350 349 347 345 346 342 339 338 332 330 330 328 324 322 321 323 321 320
58 56 51 56 62 67 68 68 69 75 89 90 72 65 53 49 49 45 59 50 40 32 18 10 356 349 350 349 347 345 341 340 340 334 331 329 329 326 324 321 322 322 321
50 45 37 32 41 56 63 64 75 76 71 65 60 48 38 37 29 34 55 57 35 22 17 9 2 356 352 348 342 337 338 335 335 333 328 327 329 326 321 321 322 322 323
37 34 32 31 38 54 58 50 55 58 43 40 45 35 24 21 16 18 30 34 10 4 8 359 352 348 345 342 341 339 339 337 336 333 330 330 330 327 323 321 320 320 319
21 21 20 21 29 40 40 25 18 24 20 14 25 20 10 9 9 10 32 34 359 351 348 346 341 339 338 337 335 334 334 334 332 331 329 328 327 324 322 322 321 319 319
1 9 10 10 19 22 13 359 357 355 348 353 5 6 4 7 8 11 10 359 338 336 342 343 340 337 335 333 329 330 331 332 333 332 329 326 325 324 321 321 322 320 320
336 348 358 360 358 355 352 347 340 343 350 347 342 344 339 336 342 341 336 331 323 326 332 335 337 334 331 330 328 329 328 328 329 329 328 324 323 322 320 320 321 322 321
Height
5864 5863 5862 5861 5861 5861 5860 5860 5861 5861 5862 5862 5863 5864 5864 5865 5865 5865 5866 5866 5867 5868 5870 5871 5873 5874 5876 5878 5879 5881 5882 5883 5885 5886 5887 5888 5888 5889 5889 5890 5891 5891 5892
5864 5863 5862 5861 5860 5861 5862 5862 5862 5862 5863 5863 5864 5865 5866 5866 5866 5867 5867 5868 5869 5870 5871 5873 5875 5876 5878 5880 5881 5883 5884 5885 5886 5887 5888 5889 5889 5890 5890 5891 5891 5892 5892
5864 5863 5861 5859 5859 5861 5863 5864 5864 5864 5864 5864 5864 5866 5867 5867 5868 5868 5869 5870 5871 5872 5874 5875 5877 5879 5880 5882 5883 5885 5886 5887 5888 5888 5889 5890 5890 5890 5891 5892 5892 5892 5892
5865 5863 5860 5859 5859 5862 5864 5865 5866 5866 5866 5865 5866 5867 5868 5869 5869 5870 5871 5872 5874 5875 5876 5877 5879 5881 5882 5883 5885 5886 5887 5888 5889 5889 5890 5891 5891 5891 5892 5892 5892 5893 5893
5866 5865 5863 5861 5862 5865 5866 5867 5867 5868 5868 5868 5868 5869 5870 5870 5871 5872 5873 5874 5876 5877 5878 5880 5881 5883 5884 5885 5886 5887 5888 5889 5890 5890 5891 5892 5892 5892 5893 5893 5893 5893 5893
5868 5867 5866 5866 5866 5868 5869 5869 5869 5870 5870 5870 5870 5871 5872 5873 5874 5874 5875 5876 5878 5879 5881 5882 5883 5885 5886 5886 5888 5888 5889 5890 5891 5891 5892 5892 5892 5893 5893 5893 5893 5893 5893
5870 5869 5869 5869 5870 5870 5871 5871 5871 5872 5872 5872 5872 5873 5874 5875 5876 5877 5877 5878 5880 5881 5882 5884 5885 5886 5887 5888 5889 5890 5890 5891 5892 5892 5893 5893 5893 5893 5894 5894 5893 5893 5893
5871 5871 5871 5871 5872 5872 5873 5873 5873 5874 5874 5875 5875 5875 5876 5877 5878 5879 5879 5880 5881 5883 5884 5885 5886 5888 5889 5890 5890 5891 5891 5892 5893 5893 5894 5893 5894 5894 5894 5894 5893 5894 5894
5873 5873 5873 5873 5874 5874 5875 5875 5875 5876 5876 5877 5877 5878 5878 5879 5880 5881 5881 5882 5884 5885 5886 5887 5888 5889 5890 5891 5891 5892 5892 5893 5893 5894 5894 5894 5894 5894 5894 5894 5894 5894 5894
5874 5875 5875 5875 5875 5876 5876 5877 5877 5878 5879 5879 5879 5880 5881 5881 5882 5883 5884 5885 5886 5887 5888 5889 5890 5891 5891 5892 5892 5893 5893 5894 5893 5894 5894 5894 5894 5894 5894 5894 5894 5894 5894
5876 5876 5877 5877 5878 5878 5878 5879 5879 5880 5881 5881 5881 5882 5883 5884 5884 5885 5886 5887 5888 5889 5890 5891 5891 5892 5893 5893 5893 5894 5894 5895 5894 5894 5895 5895 5895 5894 5894 5894 5894 5893 5893
5878 5878 5879 5880 5880 5880 5880 5881 5881 5882 5882 5883 5883 5884 5885 5886 5887 5887 5888 5889 5890 5890 5891 5892 5893 5893 5894 5894 5894 5895 5895 5895 5895 5894 5895 5895 5895 5894 5894 5894 5893 5893 5892
5881 5881 5881 5882 5882 5882 5883 5883 5884 5884 5884 5885 5886 5886 5887 5888 5889 5889 5890 5891 5891 5892 5893 5893 5894 5895 5895 5895 5895 5895 5896 5896 5896 5896 5895 5895 5895 5895 5894 5894 5893 5892 5891
5883 5883 5883 5883 5884 5884 5885 5885 5886 5886 5886 5887 5888 5888 5889 5890 5890 5891 5892 5893 5893 5894 5894 5895 5895 5895 5896 5896 5896 5896 5896 5896 5896 5896 5895 5895 5895 5894 5894 5893 5892 5891 5891
5885 5885 5885 5885 5886 5886 5887 5888 5888 5888 5888 5889 5889 5890 5891 5891 5892 5893 5893 5894 5894 5895 5895 5895 5896 5896 5896 5897 5897 5896 5896 5896 5896 5895 5895 5895 5894 5894 5893 5892 5891 5890 5890
5886 5886 5887 5887 5887 5888 5889 5889 5890 5890 5890 5891 5891 5891 5892 5892 5893 5893 5894 5895 5895 5895 5896 5896 5897 5897 5897 5897 5897 5897 5896 5896 5895 5896 5895 5894 5894 5893 5892 5891 5890 5890 5889
5888 5888 5888 5889 5889 5890 5890 5891 5891 5892 5892 5892 5893 5893 5893 5894 5894 5895 5895 5896 5896 5896 5896 5897 5897 5897 5897 5897 5897 5897 5896 5895 5895 5895 5894 5894 5893 5892 5891 5890 5889 5888 5887
5890 5890 5890 5891 5891 5891 5892 5893 5893 5893 5893 5894 5894 5894 5894 5894 5895 5896 5896 5896 5897 5897 5897 5897 5898 5898 5897 5897 5897 5897 5896 5896 5895 5894 5894 5893 5893 5892 5891 5889 5888 5887 5886
5892 5892 5892 5892 5892 5893 5893 5894 5894 5894 5895 5895 5895 5895 5895 5895 5896 5896 5897 5897 5897 5898 5898 5898 5898 5898 5898 5897 5897 5897 5896 5896 5895 5894 5893 5892 5892 5891 5889 5888 5887 5886 5884
5894 5894 5894 5894 5894 5894 5895 5895 5896 5896 5896 5896 5896 5896 5896 5896 5896 5896 5897 5897 5898 5898 5898 5898 5898 5898 5898 5897 5897 5896 5896 5895 5894 5893 5892 5891 5890 5889 5888 5886 5885 5884 5883
5896 5895 5895 5895 5896 5896 5896 5897 5897 5897 5897 5897 5897 5897 5897 5897 5897 5897 5897 5898 5898 5898 5898 5898 5898 5898 5898 5897 5896 5896 5895 5895 5893 5892 5891 5890 5889 5887 5886 5885 5883 5882 5881
5897 5897 5897 5897 5897 5897 5897 5897 5898 5898 5898 5898 5898 5897 5897 5897 5897 5897 5897 5898 5898 5898 5898 5898 5898 5898 5897 5897 5896 5895 5895 5894 5892 5891 5890 5888 5887 5886 5884 5883 5881 5880 5879
5899 5899 5898 5898 5898 5898 5898 5898 5899 5899 5899 5899 5899 5898 5898 5898 5897 5898 5898 5898 5898 5899 5898 5898 5898 5897 5897 5896 5895 5895 5894 5892 5891 5890 5888 5887 5885 5884 5883 5881 5879 5878 5876
5900 5900 5899 5899 5899 5899 5899 5900 5900 5900 5900 5899 5899 5898 5898 5898 5898 5898 5898 5898 5898 5898 5898 5898 5897 5897 5896 5895 5894 5893 5892 5891 5889 5888 5886 5885 5884 5882 5880 5879 5877 5876 5874
5901 5901 5900 5900 5900 5900 5900 5900 5900 5900 5900 5900 5899 5899 5898 5898 5898 5898 5898 5898 5898 5898 5898 5897 5897 5896 5896 5895 5893 5892 5891 5889 5887 5886 5885 5883 5882 5880 5878 5877 5875 5873 5872
5902 5901 5901 5901 5901 5901 5901 5901 5901 5900 5900 5900 5899 5899 5899 5899 5898 5898 5898 5898 5898 5897 5897 5896 5895 5895 5894 5893 5892 5891 5889 5887 5886 5884 5882 5880 5879 5877 5875 5874 5872 5871 5869